F8KGK-5 Weather Reports


time (UTC)temp
F
wind
direction
speed
knots
gust
knots
rain 1hr
in
rain 24hr
in
rain mn
in
humidity
%
barometer
mb
20260505080733 52 11 7.8 9.6 0.00 0.00 0.00 88 1003.3
20260505073734 52 5 5.2 7.0 0.00 0.00 0.00 89 1003.3
20260505070733 52 12 7.0 13.0 0.00 0.00 0.00 88 1003.2
20260505063734 52 5 5.2 10.4 0.00 0.00 0.00 89 1003.5
20260505060734 52 9 7.8 10.4 0.00 0.00 0.00 89 1003.6
20260505053733 52 18 7.0 9.6 0.00 0.00 0.00 88 1003.5
20260505050733 52 16 7.8 13.9 0.00 0.00 0.00 88 1003.5
20260505040732 52 5 6.1 10.4 0.00 0.00 0.00 88 1003.6
20260505033732 52 4 5.2 10.4 0.00 0.00 0.00 88 1003.9
20260505030733 53 18 6.1 9.6 0.00 0.00 0.00 88 1004.1
20260505025922 53 22 7.0 7.8 0.00 0.00 0.00 88 1004.1
20260505022921 53 10 4.3 7.0 0.00 0.00 0.00 89 1004.1
20260505015922 53 10 7.0 8.7 0.00 0.00 0.00 89 1004.2
20260505012922 54 10 6.1 7.0 0.00 0.00 0.00 90 1004.3
20260505005921 54 2 3.5 4.3 0.00 0.00 0.00 90 1004.6
20260505002922 54 11 4.3 5.2 0.00 0.00 0.00 90 1004.7
20260504235921 53 349 2.6 5.2 0.00 0.00 0.00 89 1004.7
20260504232921 53 11 1.7 5.2 0.00 0.00 0.00 89 1004.8
20260504225921 53 15 2.6 5.2 0.00 0.00 0.00 89 1005.2
20260504222922 53 352 0.9 1.7 0.00 0.00 0.00 89 1005.5
20260504215921 52 16 0.0 1.7 0.00 0.00 0.00 88 1005.5
20260504212921 52 15 3.5 5.2 0.00 0.00 0.00 87 1005.9
20260504205921 52 3 5.2 5.2 0.00 0.00 0.00 86 1006.2
20260504202921 53 5 4.3 7.0 0.00 0.00 0.00 84 1006.2
20260504195921 54 19 3.5 4.3 0.00 0.00 0.00 83 1006.2
20260504192921 54 351 1.7 3.5 0.00 0.00 0.00 83 1006.1
20260504185921 54 353 3.5 5.2 0.00 0.00 0.00 82 1006.1
20260504182921 55 90 2.6 4.3 0.00 0.00 0.00 81 1005.9
20260504175922 56 353 7.0 10.4 0.00 0.00 0.00 79 1005.5
20260504172921 58 355 7.0 8.7 0.00 0.00 0.00 77 1005.7